Total_Precipitation_Accumulation
0.99 1.06 1.04 0.95 0.93 1.24 1.60 1.79 1.66 1.86 1.93 1.68 1.46 1.34 1.26 1.24 1.31 1.41 1.32 1.46 1.45 1.35 1.43 1.52 1.40 1.21 1.08 0.92 0.80 0.70 0.62 0.63 0.58 0.47 0.37 0.32 0.30 0.30 0.31 0.33 0.32 0.28 0.24
1.53 1.56 1.48 1.37 1.22 1.28 1.55 1.77 1.80 1.99 1.88 1.80 1.33 1.29 1.27 1.32 1.40 1.39 1.30 1.63 1.59 1.41 1.36 1.38 1.40 1.32 1.20 1.11 0.98 0.79 0.66 0.61 0.57 0.47 0.39 0.35 0.32 0.29 0.29 0.33 0.36 0.32 0.23
1.98 1.92 1.73 1.52 1.47 1.55 1.62 1.62 1.64 1.76 1.61 1.52 1.30 1.39 1.37 1.24 1.12 1.10 1.17 1.30 1.31 1.19 1.11 1.07 1.15 1.23 1.34 1.36 1.26 1.15 0.90 0.67 0.55 0.44 0.38 0.32 0.28 0.25 0.26 0.29 0.35 0.35 0.27
2.05 2.01 1.71 1.44 1.53 1.64 1.60 1.56 1.46 1.54 1.50 1.50 1.47 1.40 1.39 1.26 1.03 0.98 1.02 1.01 1.02 0.90 0.92 0.92 0.95 1.03 1.29 1.53 1.59 1.55 1.28 0.89 0.63 0.50 0.42 0.33 0.28 0.23 0.22 0.25 0.32 0.34 0.27
1.89 2.00 1.70 1.54 1.59 1.54 1.42 1.36 1.48 1.65 1.57 1.54 1.51 1.36 1.18 1.04 0.87 0.74 0.70 0.64 0.71 0.77 0.83 0.86 0.83 0.86 1.15 1.55 1.83 1.92 1.74 1.32 0.89 0.63 0.53 0.45 0.36 0.28 0.22 0.22 0.23 0.25 0.24
1.60 1.69 1.49 1.42 1.53 1.48 1.31 1.35 1.47 1.56 1.37 1.43 1.39 1.12 0.98 0.81 0.75 0.63 0.50 0.47 0.45 0.44 0.52 0.69 0.83 0.74 0.90 1.21 1.53 1.78 1.91 1.71 1.28 0.94 0.73 0.59 0.50 0.38 0.26 0.20 0.19 0.19 0.20
1.17 1.32 1.18 1.25 1.32 1.24 1.16 1.17 1.23 1.25 1.08 1.33 1.44 0.99 0.71 0.64 0.58 0.49 0.48 0.45 0.38 0.40 0.47 0.62 0.70 0.71 0.72 0.79 1.04 1.25 1.65 1.83 1.63 1.29 0.99 0.78 0.65 0.53 0.35 0.25 0.21 0.18 0.19
1.05 1.00 0.99 1.00 1.05 1.08 0.99 0.95 1.06 1.04 0.88 1.13 1.24 1.09 0.71 0.54 0.44 0.38 0.38 0.37 0.37 0.46 0.48 0.55 0.66 0.68 0.63 0.75 0.79 0.74 1.06 1.43 1.59 1.52 1.27 0.98 0.80 0.66 0.49 0.38 0.30 0.24 0.20
1.18 1.12 1.03 0.95 0.91 0.95 0.93 0.90 0.98 0.98 0.86 0.90 1.03 1.18 0.91 0.59 0.45 0.32 0.34 0.39 0.48 0.58 0.56 0.60 0.62 0.69 0.67 0.75 0.83 0.87 0.74 0.94 1.30 1.65 1.60 1.28 0.93 0.68 0.54 0.49 0.45 0.34 0.26
1.37 1.24 1.11 0.94 0.81 0.79 0.83 0.77 0.82 0.92 0.92 0.82 0.82 0.90 0.93 0.93 0.85 0.50 0.31 0.33 0.50 0.59 0.59 0.60 0.64 0.70 0.74 0.80 0.92 1.19 1.05 0.87 1.03 1.46 1.65 1.53 1.19 0.85 0.67 0.64 0.76 0.68 0.43
1.10 0.96 0.89 0.83 0.74 0.68 0.67 0.71 0.81 0.89 0.91 0.83 0.83 0.82 0.86 0.98 1.00 0.87 0.55 0.48 0.53 0.51 0.49 0.54 0.63 0.74 0.82 0.96 1.18 1.37 1.54 1.30 1.11 1.11 1.24 1.30 1.28 1.09 0.88 0.89 1.22 1.37 1.08
0.68 0.66 0.65 0.67 0.66 0.65 0.64 0.64 0.70 0.79 0.87 0.91 0.93 0.98 1.02 1.02 1.08 1.16 0.94 0.78 0.72 0.64 0.61 0.67 0.78 0.94 1.04 1.12 1.20 1.36 1.36 1.39 1.33 1.23 1.17 1.12 1.12 1.12 1.10 1.13 1.40 1.66 1.73
0.47 0.51 0.55 0.59 0.60 0.64 0.70 0.77 0.77 0.77 0.85 0.95 0.99 1.08 1.17 1.16 1.22 1.32 1.25 1.06 0.97 0.95 0.96 0.95 0.95 1.09 1.07 1.14 1.23 1.15 0.95 1.00 1.00 1.00 0.97 0.93 0.92 0.98 1.04 1.05 1.21 1.46 1.71
0.47 0.50 0.58 0.63 0.63 0.65 0.66 0.76 0.80 0.86 0.93 0.96 0.97 1.12 1.22 1.18 1.29 1.42 1.44 1.40 1.27 1.28 1.35 1.34 1.12 1.02 1.02 1.08 1.17 1.06 0.94 0.82 0.63 0.56 0.54 0.56 0.60 0.68 0.77 0.90 1.01 1.08 1.20
0.50 0.55 0.63 0.71 0.74 0.75 0.77 0.81 0.82 0.92 1.09 1.16 1.15 1.19 1.25 1.24 1.29 1.41 1.52 1.55 1.53 1.49 1.50 1.48 1.21 1.04 0.94 0.95 1.03 1.06 1.12 0.90 0.56 0.40 0.36 0.35 0.38 0.43 0.48 0.59 0.69 0.81 0.93
0.55 0.59 0.64 0.67 0.72 0.74 0.77 0.81 0.87 0.97 1.12 1.19 1.27 1.36 1.35 1.31 1.36 1.42 1.47 1.58 1.68 1.69 1.60 1.47 1.28 1.15 1.07 0.92 0.92 0.88 0.90 0.74 0.51 0.40 0.35 0.32 0.31 0.31 0.35 0.41 0.48 0.57 0.67
0.55 0.61 0.58 0.52 0.50 0.55 0.67 0.82 0.89 0.98 1.06 1.10 1.17 1.19 1.18 1.20 1.25 1.22 1.29 1.42 1.57 1.70 1.57 1.51 1.43 1.38 1.30 1.19 1.05 0.82 0.68 0.57 0.50 0.46 0.38 0.34 0.31 0.31 0.30 0.30 0.34 0.42 0.51
0.52 0.57 0.54 0.49 0.48 0.54 0.67 0.81 0.97 1.17 1.29 1.25 1.18 1.09 1.02 1.07 1.14 1.16 1.26 1.29 1.35 1.54 1.55 1.55 1.56 1.58 1.47 1.28 1.18 1.02 0.80 0.65 0.62 0.57 0.46 0.38 0.33 0.33 0.30 0.29 0.32 0.36 0.45
0.52 0.52 0.54 0.59 0.69 0.77 0.88 1.00 1.06 1.20 1.25 1.16 1.11 1.04 0.97 0.96 0.98 1.06 1.16 1.24 1.24 1.32 1.44 1.49 1.55 1.62 1.60 1.40 1.21 1.08 0.95 0.91 0.83 0.67 0.49 0.41 0.35 0.33 0.32 0.29 0.33 0.40 0.53
0.38 0.47 0.60 0.77 0.88 0.94 0.97 1.04 1.03 1.00 1.00 0.92 0.85 0.80 0.85 0.95 0.99 0.96 0.95 0.99 1.06 1.16 1.24 1.31 1.43 1.56 1.61 1.54 1.30 1.19 1.15 1.05 0.97 0.72 0.58 0.47 0.39 0.32 0.30 0.26 0.25 0.35 0.47
0.32 0.45 0.61 0.71 0.71 0.73 0.80 0.88 0.89 0.86 0.82 0.76 0.67 0.53 0.53 0.71 0.85 0.87 0.82 0.83 0.85 0.93 1.00 1.10 1.22 1.38 1.49 1.55 1.37 1.18 1.13 1.14 1.09 0.96 0.81 0.67 0.54 0.45 0.43 0.40 0.32 0.31 0.33
0.32 0.40 0.49 0.50 0.46 0.36 0.35 0.39 0.48 0.56 0.61 0.61 0.53 0.47 0.46 0.50 0.54 0.56 0.61 0.66 0.71 0.76 0.86 1.00 1.13 1.22 1.25 1.33 1.40 1.37 1.29 1.24 1.21 1.17 1.15 1.10 0.86 0.78 0.75 0.71 0.54 0.33 0.23
0.33 0.39 0.39 0.40 0.41 0.40 0.27 0.20 0.21 0.32 0.41 0.44 0.44 0.45 0.37 0.34 0.36 0.34 0.35 0.36 0.40 0.47 0.59 0.78 0.98 1.07 1.16 1.16 1.34 1.41 1.39 1.45 1.46 1.43 1.38 1.45 1.19 0.96 0.85 0.77 0.65 0.43 0.29
0.41 0.45 0.42 0.41 0.45 0.42 0.29 0.21 0.17 0.20 0.31 0.35 0.37 0.37 0.36 0.39 0.39 0.36 0.34 0.33 0.30 0.30 0.34 0.44 0.65 0.89 1.06 1.21 1.25 1.35 1.40 1.45 1.45 1.32 1.23 1.37 1.32 1.22 1.04 0.76 0.63 0.52 0.41
0.50 0.47 0.46 0.48 0.50 0.50 0.36 0.23 0.18 0.25 0.37 0.38 0.38 0.37 0.36 0.37 0.35 0.30 0.34 0.35 0.34 0.34 0.30 0.33 0.44 0.66 0.86 0.95 1.12 1.28 1.38 1.29 1.24 1.01 0.79 0.89 1.05 1.12 1.19 1.06 0.78 0.67 0.53
0.63 0.57 0.52 0.54 0.58 0.65 0.54 0.31 0.23 0.34 0.50 0.54 0.56 0.52 0.41 0.37 0.33 0.25 0.29 0.36 0.34 0.33 0.33 0.31 0.30 0.41 0.58 0.72 0.79 0.88 1.02 1.08 0.99 0.91 0.67 0.55 0.58 0.68 0.82 0.84 0.75 0.71 0.72